2020-085X

Last updated on Thu Dec 03 2020 00:02:04 GMT+0000 (Coordinated Universal Time)

1 46950U 20085X 20337.63123153 .00010359 00000-0 47712-3 0 9990 2 46950 97.3681 111.9924 0014218 268.7464 91.2175 15.20391274 1909
UTC large
Height (km)
Speed (km/s)
/
Latitude / Longitude
Inclination (degrees)
Orbital Period (minutes)
Azimuth
Elevation
Range (km)
Doppler Factor

Next 0 passes for location: London (51.5072 / 0.1276)

Sorry there are no passes over London.